Location: Oregon Star Party
(44.2935°N, 120.1332°W)
Time: 22:32:15
(UTC-07:00)

Amateur Radio Satellites - All Passes

Search period start: 17 April 2014 22:02
Search period end: 18 April 2014 22:02
Location: Oregon Star Party, 44.2935°N, 120.1332°W

Satellite Date Start Highest point End Downlink Frequencies (MHz)
Time Altitude Azimuth
MaSat-1 17 Apr 22:18:51 22:21:47 61° 116° (ESE) 22:24:22 437.345 MHz
HO-68 17 Apr 22:19:02 22:25:27 36° 263° (W) 22:31:57 435.675 MHz FM
ISS 17 Apr 22:23:30 22:26:53 83° 213° (SSW) 22:30:14 145.800 FM
SO-50 17 Apr 23:04:37 23:07:08 14° 32° (NNE) 23:09:40 436.795 FM
FUNcube-1 17 Apr 23:08:02 23:12:08 49° 260° (W) 23:16:12 145.950 - 145.970 MHz USB
Oscar 11 17 Apr 23:26:14 23:27:47 12° 271° (W) 23:29:21 145.825 FM, Beacon 2401.500 USB
ISS 18 Apr 00:01:49 00:03:08 12° 229° (SW) 00:04:27 145.800 FM
Sapphire 18 Apr 00:05:59 00:08:52 15° 103° (ESE) 00:11:46 437.095 MHz 1200 baud AX-25 AFSK
SO-50 18 Apr 00:43:57 00:48:34 67° 53° (NE) 00:53:15 436.795 FM
PCSat 18 Apr 00:48:34 00:53:28 37° 112° (ESE) 00:58:25 145.825 MHz
OPAL 18 Apr 00:57:56 00:59:26 11° 52° (NE) 01:00:56 ?
UOSAT-12 18 Apr 01:36:46 01:40:21 21° 38° (NE) 01:43:55 437.025 FM, 437.400 FM
Sapphire 18 Apr 01:46:08 01:51:33 83° 301° (WNW) 01:57:01 437.095 MHz 1200 baud AX-25 AFSK
AO-27 18 Apr 01:50:06 01:52:21 13° 88° (E) 01:54:36 436.795 MHz FM
ITAMSAT 1 18 Apr 02:00:31 02:03:39 16° 90° (E) 02:06:46 435.822 SSB
Oscar 19 18 Apr 02:07:53 02:12:39 35° 97° (E) 02:17:23 437.125 CW, 437.150 USB
Oscar 16 18 Apr 02:15:44 02:20:43 44° 99° (E) 02:25:39 437.025 USB, Beacon 2401.1428
AO-Echo 18 Apr 02:23:39 02:27:08 20° 92° (E) 02:30:34 ?
SO-50 18 Apr 02:25:47 02:28:40 16° 250° (WSW) 02:31:33 436.795 FM
PCSat 18 Apr 02:31:52 02:36:52 37° 311° (NW) 02:41:55 145.825 MHz
OPAL 18 Apr 02:32:24 02:37:24 72° 71° (ENE) 02:42:30 ?
KITSAT 1 18 Apr 02:38:52 02:45:52 34° 108° (ESE) 02:52:54 435.175 FM
Uribyol 2 18 Apr 02:48:01 02:53:00 46° 99° (E) 02:57:57 436.500 FM
Gurwin Techsat 1B 18 Apr 03:11:21 03:15:37 24° 93° (E) 03:19:50 435.225 FM
UOSAT-12 18 Apr 03:16:17 03:21:01 73° 238° (WSW) 03:25:41 437.025 FM, 437.400 FM
AO-27 18 Apr 03:27:19 03:32:31 83° 286° (WNW) 03:37:41 436.795 MHz FM
Sapphire 18 Apr 03:32:11 03:35:50 18° 322° (NW) 03:39:30 437.095 MHz 1200 baud AX-25 AFSK
ITAMSAT 1 18 Apr 03:38:29 03:43:38 68° 287° (WNW) 03:48:46 435.822 SSB
Oscar 19 18 Apr 03:47:21 03:51:55 32° 294° (WNW) 03:56:28 437.125 CW, 437.150 USB
Oscar 16 18 Apr 03:55:35 03:59:49 26° 296° (WNW) 04:04:04 437.025 USB, Beacon 2401.1428
AO-7 18 Apr 03:55:56 04:00:28 15° 87° (E) 04:04:59 29.400 - 29.500 MHz
TMSAT-1 18 Apr 04:00:00 04:05:07 47° 99° (E) 04:10:11 436.925 FM
AO-Echo 18 Apr 04:01:35 04:06:13 47° 290° (WNW) 04:10:43 ?
OPAL 18 Apr 04:14:05 04:16:50 15° 269° (W) 04:19:37 ?
Uosat F 18 Apr 04:18:49 04:22:57 25° 94° (E) 04:27:03 435.120 FM
PCSat 18 Apr 04:21:28 04:21:57 10° 334° (NNW) 04:22:26 145.825 MHz
Uribyol 2 18 Apr 04:28:03 04:32:13 25° 297° (WNW) 04:36:22 436.500 FM
KITSAT 1 18 Apr 04:32:47 04:40:49 63° 308° (NW) 04:48:54 435.175 FM
Gurwin Techsat 1B 18 Apr 04:50:44 04:55:48 47° 291° (WNW) 05:00:52 435.225 FM
JAS-1B 18 Apr 04:58:21 05:04:02 67° 103° (ESE) 05:09:49 435.800 - 435.900 CW/SSB
AO-27 18 Apr 05:09:04 05:11:13 13° 304° (NW) 05:13:23 436.795 MHz FM
STRAND 1 18 Apr 05:11:13 05:13:29 13° 57° (ENE) 05:15:45 ?
ITAMSAT 1 18 Apr 05:21:30 05:22:10 10° 306° (NW) 05:22:51 435.822 SSB
AO-40 18 Apr 05:35:11 08:25:01 31° 189° (S) 13:27:47 Beacon 2401.320
TMSAT-1 18 Apr 05:40:29 05:44:46 26° 297° (WNW) 05:49:02 436.925 FM
AO-7 18 Apr 05:46:13 05:54:35 77° 107° (ESE) 06:02:54 29.400 - 29.500 MHz
RS-15 18 Apr 05:54:45 06:03:02 24° 102° (ESE) 06:11:06 29.354 - 29.394 USB, Beacon 29.352 USB
Uosat F 18 Apr 05:57:12 06:01:52 41° 292° (WNW) 06:06:32 435.120 FM
Hamsat 18 Apr 06:26:38 06:29:59 21° 93° (E) 06:33:20 145.90 MHz
KITSAT 1 18 Apr 06:31:57 06:38:01 22° 333° (NNW) 06:44:06 435.175 FM
MaSat-1 18 Apr 06:40:58 06:43:06 19° 56° (ENE) 06:45:27 437.345 MHz
STRAND 1 18 Apr 06:46:47 06:51:54 87° 75° (ENE) 06:57:03 ?
JAS-1B 18 Apr 06:50:24 06:54:12 19° 302° (WNW) 06:57:59 435.800 - 435.900 CW/SSB
SO-67 18 Apr 07:15:12 07:16:13 11° 90° (E) 07:17:15 435.3500 MHz FM
AO-7 18 Apr 07:39:55 07:46:37 29° 307° (NW) 07:53:20 29.400 - 29.500 MHz
PCSat 18 Apr 07:53:04 07:54:47 11° 29° (NNE) 07:56:29 145.825 MHz
Hamsat 18 Apr 08:02:04 08:06:05 37° 290° (WNW) 08:10:06 145.90 MHz
RS-15 18 Apr 08:02:34 08:13:55 90° 123° (ESE) 08:24:56 29.354 - 29.394 USB, Beacon 29.352 USB
JAS-2 18 Apr 08:09:30 08:14:49 68° 103° (ESE) 08:20:37 435.800 - 435.900 CW/SSB, 435.910 FM
MaSat-1 18 Apr 08:19:06 08:21:30 22° 248° (WSW) 08:24:11 437.345 MHz
STRAND 1 18 Apr 08:29:53 08:31:46 12° 272° (W) 08:33:39 ?
KITSAT 1 18 Apr 08:32:39 08:37:05 15° 4° (N) 08:41:31 435.175 FM
SO-67 18 Apr 08:46:17 08:49:40 47° 286° (WNW) 08:53:02 435.3500 MHz FM
Sapphire 18 Apr 08:49:56 08:54:06 22° 41° (NE) 08:58:16 437.095 MHz 1200 baud AX-25 AFSK
PCSat 18 Apr 09:34:30 09:39:42 44° 51° (NE) 09:44:51 145.825 MHz
Oscar 11 18 Apr 09:35:22 09:36:41 11° 88° (E) 09:37:59 145.825 FM, Beacon 2401.500 USB
HO-68 18 Apr 09:44:02 09:50:47 42° 98° (E) 09:57:30 435.675 MHz FM
JAS-2 18 Apr 09:56:01 09:59:31 18° 299° (WNW) 10:03:09 435.800 - 435.900 CW/SSB, 435.910 FM
RS-15 18 Apr 10:17:49 10:27:47 36° 331° (NNW) 10:37:37 29.354 - 29.394 USB, Beacon 29.352 USB
KITSAT 1 18 Apr 10:29:04 10:35:49 28° 33° (NNE) 10:42:31 435.175 FM
Sapphire 18 Apr 10:32:42 10:38:08 75° 242° (WSW) 10:43:31 437.095 MHz 1200 baud AX-25 AFSK
FUNcube-1 18 Apr 10:55:48 10:59:23 26° 95° (E) 11:03:01 145.950 - 145.970 MHz USB
Saudisat 1A 18 Apr 10:57:49 11:01:14 22° 113° (ESE) 11:04:40 436.775 MHz
Oscar 11 18 Apr 11:09:01 11:13:22 73° 285° (WNW) 11:17:43 145.825 FM, Beacon 2401.500 USB
PCSat 18 Apr 11:18:15 11:22:57 31° 250° (WSW) 11:27:37 145.825 MHz
HO-68 18 Apr 11:31:50 11:38:28 42° 297° (WNW) 11:45:05 435.675 MHz FM
Oscar 16 18 Apr 11:59:22 12:00:55 11° 55° (NE) 12:02:28 437.025 USB, Beacon 2401.1428
Sapphire 18 Apr 12:19:59 12:20:35 10° 259° (W) 12:21:11 437.095 MHz 1200 baud AX-25 AFSK
KITSAT 1 18 Apr 12:24:15 12:32:25 86° 57° (ENE) 12:40:31 435.175 FM
Uribyol 2 18 Apr 12:32:00 12:34:00 12° 56° (NE) 12:36:01 436.500 FM
FUNcube-1 18 Apr 12:32:08 12:35:48 29° 291° (WNW) 12:39:32 145.950 - 145.970 MHz USB
RS-15 18 Apr 12:35:45 12:44:26 26° 5° (N) 12:53:07 29.354 - 29.394 USB, Beacon 29.352 USB
Saudisat 1A 18 Apr 12:36:14 12:40:34 47° 311° (NW) 12:44:54 436.775 MHz
Oscar 10/S400 18 Apr 12:45:58 14:18:50 34° 254° (WSW) 18:15:58 145.825 - 145.975 CW/USB, Beacon 145.810 USB
AO-27 18 Apr 13:09:03 13:13:12 25° 63° (ENE) 13:17:21 436.795 MHz FM
ITAMSAT 1 18 Apr 13:19:41 13:24:07 30° 65° (ENE) 13:28:34 435.822 SSB
Oscar 19 18 Apr 13:26:16 13:31:18 59° 72° (ENE) 13:36:23 437.125 CW, 437.150 USB
Oscar 16 18 Apr 13:34:15 13:39:22 75° 74° (ENE) 13:44:33 437.025 USB, Beacon 2401.1428
AO-Echo 18 Apr 13:37:30 13:42:09 34° 67° (ENE) 13:46:44 ?
TMSAT-1 18 Apr 13:46:13 13:48:33 13° 56° (ENE) 13:50:53 436.925 FM
JAS-1B 18 Apr 13:58:09 14:01:53 15° 54° (NE) 14:05:21 435.800 - 435.900 CW/SSB
Uribyol 2 18 Apr 14:07:30 14:12:39 81° 74° (ENE) 14:17:51 436.500 FM
Saudisat 1A 18 Apr 14:19:59 14:21:16 11° 332° (NNW) 14:22:33 436.775 MHz
KITSAT 1 18 Apr 14:21:04 14:26:50 22° 257° (WSW) 14:32:35 435.175 FM
Gurwin Techsat 1B 18 Apr 14:33:50 14:38:49 44° 69° (ENE) 14:43:51 435.225 FM
OPAL 18 Apr 14:41:56 14:45:13 17° 93° (E) 14:48:30 ?
AO-27 18 Apr 14:47:27 14:52:26 47° 261° (W) 14:57:27 436.795 MHz FM
RS-15 18 Apr 14:50:05 15:00:29 46° 38° (NE) 15:11:00 29.354 - 29.394 USB, Beacon 29.352 USB
AO-7 18 Apr 14:56:15 15:03:00 29° 53° (NE) 15:09:45 29.400 - 29.500 MHz
ITAMSAT 1 18 Apr 14:58:41 15:03:30 38° 262° (W) 15:08:19 435.822 SSB
SO-50 18 Apr 15:02:57 15:05:14 14° 109° (ESE) 15:07:32 436.795 FM
Oscar 19 18 Apr 15:07:33 15:11:03 18° 269° (W) 15:14:34 437.125 CW, 437.150 USB
ISS 18 Apr 15:08:44 15:10:29 14° 132° (SE) 15:12:15 145.800 FM
AO-Echo 18 Apr 15:16:10 15:20:53 33° 264° (W) 15:25:32 ?
Oscar 16 18 Apr 15:16:37 15:19:18 14° 271° (W) 15:22:01 437.025 USB, Beacon 2401.1428
TMSAT-1 18 Apr 15:22:21 15:27:39 83° 75° (ENE) 15:32:58 436.925 FM
Uosat F 18 Apr 15:33:28 15:38:11 42° 69° (ENE) 15:42:54 435.120 FM
JAS-1B 18 Apr 15:43:34 15:51:38 71° 72° (ENE) 15:58:22 435.800 - 435.900 CW/SSB
Uribyol 2 18 Apr 15:50:24 15:52:46 13° 271° (W) 15:55:08 436.500 FM
Gurwin Techsat 1B 18 Apr 16:14:34 16:18:58 26° 266° (W) 16:23:23 435.225 FM
OPAL 18 Apr 16:19:23 16:24:34 68° 290° (WNW) 16:29:44 ?
SO-50 18 Apr 16:40:44 16:45:13 72° 307° (NW) 16:49:45 436.795 FM
ISS 18 Apr 16:43:27 16:46:48 87° 328° (NNW) 16:50:10 145.800 FM
AO-7 18 Apr 16:46:49 16:55:05 74° 254° (WSW) 17:03:24 29.400 - 29.500 MHz
RS-15 18 Apr 17:02:39 17:13:24 65° 243° (WSW) 17:24:26 29.354 - 29.394 USB, Beacon 29.352 USB
TMSAT-1 18 Apr 17:05:48 17:08:14 13° 272° (W) 17:10:40 436.925 FM
Uosat F 18 Apr 17:13:01 17:17:07 25° 266° (W) 17:21:15 435.120 FM
Hamsat 18 Apr 17:22:17 17:25:17 19° 65° (ENE) 17:28:18 145.90 MHz
UOSAT-12 18 Apr 17:29:52 17:33:27 23° 113° (ESE) 17:37:06 437.025 FM, 437.400 FM
JAS-1B 18 Apr 17:36:24 17:42:35 24° 266° (W) 17:48:05 435.800 - 435.900 CW/SSB
OPAL 18 Apr 18:01:07 18:02:30 11° 308° (NW) 18:03:53 ?
ISS 18 Apr 18:20:58 18:23:53 27° 348° (NNW) 18:26:49 145.800 FM
SO-50 18 Apr 18:24:06 18:26:36 15° 328° (NNW) 18:29:08 436.795 FM
JAS-2 18 Apr 18:24:11 18:29:18 34° 67° (ENE) 18:34:04 435.800 - 435.900 CW/SSB, 435.910 FM
AO-7 18 Apr 18:45:03 18:49:15 15° 273° (W) 18:53:28 29.400 - 29.500 MHz
STRAND 1 18 Apr 18:56:24 19:00:37 26° 94° (E) 19:04:48 ?
Hamsat 18 Apr 18:57:01 19:00:59 41° 262° (W) 19:05:01 145.90 MHz
UOSAT-12 18 Apr 19:08:54 19:13:19 47° 311° (NW) 19:17:51 437.025 FM, 437.400 FM
RS-15 18 Apr 19:18:43 19:23:26 14° 265° (W) 19:28:13 29.354 - 29.394 USB, Beacon 29.352 USB
SO-67 18 Apr 19:21:12 19:24:40 70° 76° (ENE) 19:28:10 435.3500 MHz FM
Saudisat 1A 18 Apr 19:22:19 19:26:16 31° 45° (NE) 19:30:11 436.775 MHz
ISS 18 Apr 19:58:31 20:01:21 24° 8° (N) 20:04:11 145.800 FM
JAS-2 18 Apr 20:09:07 20:14:25 35° 263° (W) 20:19:19 435.800 - 435.900 CW/SSB, 435.910 FM
HO-68 18 Apr 20:14:26 20:20:52 38° 62° (ENE) 20:27:19 435.675 MHz FM
Oscar 11 18 Apr 20:32:30 20:34:11 12° 60° (ENE) 20:35:52 145.825 FM, Beacon 2401.500 USB
STRAND 1 18 Apr 20:35:11 20:39:57 42° 292° (WNW) 20:44:43 ?
UOSAT-12 18 Apr 20:52:59 20:54:39 12° 333° (NNW) 20:56:20 437.025 FM, 437.400 FM
Saudisat 1A 18 Apr 21:01:53 21:05:54 35° 243° (WSW) 21:09:53 436.775 MHz
ISS 18 Apr 21:35:12 21:38:33 64° 28° (NNE) 21:41:53 145.800 FM
FUNcube-1 18 Apr 21:54:22 21:57:52 26° 68° (ENE) 22:01:21 145.950 - 145.970 MHz USB
